Location: Newark
(25.6108°S, 54.5803°W)
Time: 20:28:20
(UTC+00:00)

Courier 1B - Pass Details

Date: 31 October 2020
Orbit: 962 x 1209 km, 28.3° (Epoch: 24 November)

Event Time Altitude Azimuth Distance (km) Brightness Sun altitude
Rises 23:22:38 0° 306° (NW) 3,795 10.9 -19.3°
Reaches altitude 10° 23:25:21 10° 311° (NW) 2,880 10.2 -19.8°
Maximum altitude 23:32:10 50° 25° (NNE) 1,391 7.9 -21.2°
Enters shadow 23:34:37 37° 72° (ENE) 1,687 8.2 -21.7°
Drops below altitude 10° 23:39:25 10° 97° (E) 3,068 - -22.6°
Sets 23:42:24 0° 102° (ESE) 4,061 - -23.2°
